Location: Ferintosh
(52.7647°N, 112.9692°W)
Time: 17:42:33
(UTC+00:00)

Explorer 7 - Pass Details

Date: 26 May 2024
Orbit: 466 x 622 km, 50.3° (Epoch: 15 June)

Event Time Altitude Azimuth Distance (km) Brightness Sun altitude
Rises 09:08:44 0° 276° (W) 2,596 10.1 -12.9°
Reaches altitude 10° 09:10:56 10° 270° (W) 1,735 9.1 -12.7°
Maximum altitude 09:14:41 44° 198° (SSW) 743 7.0 -12.5°
Drops below altitude 10° 09:18:38 10° 126° (SE) 1,824 9.4 -12.3°
Sets 09:21:00 0° 120° (ESE) 2,747 10.4 -12.1°
